Theta_e
332 332 331 330 329 329 328 328 328 326 327 327 327 326 325 324 325 324 325 324 324 323 323 324 324 324 325 325 324 324 324 324 324 325 324 322 322 323 321 322 322 321
331 330 329 328 327 327 328 327 326 326 326 326 325 324 324 324 324 324 324 323 323 323 323 323 324 324 324 324 323 323 323 322 323 323 322 321 321 321 321 321 321 320
330 329 328 327 327 326 326 325 325 325 325 324 324 324 324 324 323 323 323 323 323 323 322 322 323 322 323 322 322 322 321 321 321 321 321 320 320 320 319 319 319 319
328 327 327 326 326 325 324 324 324 324 323 323 323 323 323 323 323 322 322 323 323 322 322 321 321 321 321 321 321 321 320 320 320 320 320 319 318 318 318 318 318 318
327 326 326 326 325 324 324 324 323 323 322 322 322 322 323 323 323 322 322 322 322 322 321 320 320 320 320 320 320 319 319 319 319 319 319 318 318 318 317 317 316 316
325 325 325 325 324 323 323 323 322 322 321 321 321 322 322 322 322 321 321 321 320 320 320 319 319 319 319 319 319 319 319 319 318 318 318 318 317 317 316 315 315 315
324 324 324 323 322 322 322 322 321 321 321 321 321 321 322 321 321 320 320 319 319 319 319 319 319 318 318 318 318 318 318 318 318 318 318 317 316 315 315 314 313 313
323 323 322 322 321 321 321 321 321 320 320 320 321 321 320 320 320 320 319 319 319 319 318 318 318 318 317 317 318 318 318 317 317 317 317 316 315 314 314 313 312 312
322 322 321 321 321 321 320 320 320 320 320 320 320 320 320 319 319 319 319 318 318 318 318 317 317 317 317 317 317 317 317 316 316 316 316 316 314 314 313 312 312 311
322 321 321 320 320 320 320 320 319 320 320 319 319 319 319 319 318 318 318 318 317 317 316 316 317 317 317 316 316 316 316 316 315 315 315 315 314 313 312 312 311 311
321 320 320 320 320 319 319 319 319 319 319 319 319 318 318 318 317 317 317 316 315 315 314 314 315 315 315 315 315 315 315 315 315 314 314 313 313 313 312 311 311 311
320 320 319 319 319 319 318 318 319 319 319 318 318 318 317 317 316 316 315 314 313 312 312 312 313 313 313 314 314 314 313 313 314 314 313 312 312 312 311 311 310 310
319 319 319 318 318 318 317 318 318 318 318 317 317 317 316 316 315 314 313 312 311 310 310 311 311 311 312 312 313 312 311 311 312 312 311 310 309 308 309 309 309 309
318 318 317 317 317 317 317 317 317 317 317 317 316 316 315 314 313 312 311 310 309 308 309 309 309 310 310 311 311 311 310 309 309 310 310 309 308 307 306 307 308 308
317 317 317 317 317 317 317 317 317 316 316 316 315 315 314 313 312 311 310 308 307 307 307 308 308 308 308 308 309 309 308 308 308 308 308 308 307 306 306 305 306 307
317 317 317 317 317 317 316 316 316 316 315 315 315 314 313 312 311 310 309 307 306 305 306 306 306 306 306 307 307 307 307 306 306 307 307 307 307 306 305 305 304 305
317 317 316 316 316 316 316 316 316 315 315 314 314 313 312 311 310 309 308 307 306 305 305 305 306 306 306 305 305 305 305 305 305 305 306 306 306 305 305 304 303 303
317 317 316 316 316 316 316 315 315 315 314 313 313 312 311 310 309 308 307 306 305 304 304 304 305 305 306 305 305 304 304 303 303 303 303 303 304 304 304 304 303 302
317 317 316 316 316 316 315 315 314 314 313 313 312 311 310 308 308 307 306 305 303 302 303 304 304 305 306 306 305 305 305 303 302 301 301 300 300 301 302 302 302 302
317 317 316 316 316 315 315 314 314 313 312 312 311 310 308 307 306 305 305 304 302 301 302 303 304 304 305 305 306 306 306 305 303 301 300 298 297 297 298 299 300 300
317 316 316 315 315 314 314 313 313 312 311 311 310 309 308 307 306 305 304 303 302 300 301 302 303 303 304 305 305 306 306 305 304 303 301 299 297 296 296 297 298 299
316 316 315 315 314 314 313 313 312 311 310 310 309 308 307 306 305 304 303 303 302 300 300 301 303 303 304 304 305 307 306 305 304 304 303 302 299 297 296 296 297 297
316 315 314 314 314 313 313 312 311 310 309 309 308 307 306 306 305 304 303 302 301 300 299 300 302 303 303 304 305 306 306 305 304 304 303 302 301 300 298 296 296 297
315 314 314 314 313 312 311 311 310 309 308 308 307 307 306 305 304 303 302 301 300 299 299 299 301 302 303 303 304 305 305 305 305 304 303 302 301 301 299 297 296 296
314 314 314 313 312 311 310 310 309 308 307 306 306 305 304 304 303 303 302 302 301 300 298 298 299 301 302 303 304 304 305 304 304 303 302 302 301 300 300 298 296 296
314 313 313 312 311 310 309 308 307 307 306 305 305 304 304 304 303 302 302 301 300 299 298 297 297 299 301 303 304 305 305 304 304 303 302 301 300 300 299 298 297 296
Wind_Speed
11 10 10 9 7 7 8 9 8 7 6 8 9 8 7 6 6 7 8 9 10 10 11 12 13 14 15 15 16 17 18 18 18 17 19 20 19 18 20 20 20 20
12 11 9 9 7 7 9 10 9 7 6 7 9 8 7 6 6 7 8 9 11 12 13 13 13 14 15 15 16 16 17 18 19 18 18 19 19 18 19 20 20 21
12 12 10 9 9 9 9 9 9 9 8 7 8 8 7 7 7 8 10 10 11 12 13 14 14 14 14 15 15 16 18 18 18 18 17 18 19 18 19 20 20 21
12 12 11 10 11 10 10 10 9 9 9 9 8 8 8 8 8 9 10 10 11 12 13 14 14 14 14 15 16 17 18 18 17 17 17 18 19 19 19 20 21 22
12 12 12 12 12 11 11 11 10 10 10 10 10 9 8 8 8 9 10 11 11 12 13 14 14 15 16 16 17 17 17 17 17 16 17 18 19 19 19 21 21 23
12 12 12 13 13 12 12 12 11 11 11 11 11 9 7 7 9 10 10 10 12 13 14 15 15 16 16 16 17 16 15 15 15 16 17 17 18 19 20 21 22 23
13 13 13 12 12 12 12 13 12 12 12 12 11 10 8 9 10 9 9 11 13 13 14 15 16 16 16 15 15 15 15 15 15 16 17 17 18 20 20 20 21 23
13 14 13 12 12 13 13 13 13 13 13 12 11 10 9 10 11 11 11 12 13 13 14 14 15 15 16 15 15 14 14 15 15 16 16 16 18 20 20 20 21 22
15 14 14 14 13 13 13 14 14 14 13 12 10 9 9 10 12 11 11 12 13 12 13 14 15 15 15 15 15 15 15 15 16 16 16 17 18 18 18 18 19 20
16 16 15 15 14 14 14 14 14 14 13 11 9 8 9 11 13 12 12 14 15 13 12 15 16 16 16 16 16 15 15 15 15 16 17 17 17 17 16 17 18 19
17 16 16 15 15 15 15 15 14 14 13 11 9 9 10 12 13 14 15 17 17 14 13 15 15 16 17 17 16 15 15 15 14 15 16 17 16 16 15 16 17 18
17 16 16 16 16 15 15 15 15 14 13 12 11 11 13 13 13 14 16 17 17 16 16 16 16 17 18 17 16 16 16 16 16 16 17 17 17 16 16 16 17 18
17 17 17 17 16 16 15 15 14 14 14 12 12 13 15 15 14 15 16 17 17 17 18 18 18 18 18 19 18 17 16 17 17 17 17 17 17 17 17 16 17 18
18 17 17 16 16 16 15 15 14 14 14 13 13 15 15 14 14 15 17 17 17 19 20 19 19 20 20 20 19 17 17 17 17 17 16 16 16 17 18 17 16 18
18 17 17 17 16 16 16 16 15 15 14 13 14 15 15 15 15 16 17 18 19 20 21 20 20 21 21 19 19 18 17 16 16 17 16 16 16 17 18 18 17 17
17 17 17 17 17 17 17 16 15 15 14 14 14 15 15 15 15 17 17 18 19 21 21 21 21 20 20 19 19 19 18 17 16 17 16 16 17 17 18 19 19 18
18 17 17 17 17 17 17 16 16 16 15 14 15 15 14 15 16 17 18 18 19 20 21 20 20 19 19 19 20 20 19 18 17 17 17 17 17 18 18 19 19 19
19 19 18 18 18 17 17 16 16 16 15 15 15 15 14 15 16 17 18 18 18 19 20 19 19 18 18 19 19 20 19 19 19 19 19 19 18 18 18 19 19 20
20 20 19 18 18 18 17 17 16 16 15 15 15 15 15 16 17 18 17 17 17 18 19 18 18 18 17 18 18 18 18 18 19 21 21 21 21 20 19 19 19 19
20 20 19 19 18 18 18 17 16 16 16 16 15 15 15 16 17 17 17 16 16 16 17 16 16 15 15 16 16 17 17 17 17 20 22 23 24 24 21 21 20 19
20 19 19 19 18 18 18 17 17 17 17 16 15 14 15 16 16 16 16 16 15 14 14 14 13 11 12 12 13 14 15 15 15 16 18 21 24 26 24 22 22 22
20 20 19 19 19 18 18 17 17 17 16 15 15 15 15 15 16 15 16 16 15 13 12 12 10 9 10 10 10 12 14 15 15 14 15 16 19 23 24 23 24 24
20 20 20 19 19 18 18 17 17 16 16 15 15 16 15 15 15 15 16 16 15 13 11 11 10 9 9 10 10 11 13 13 12 13 14 14 15 18 21 22 23 24
21 20 20 20 19 18 18 18 17 16 16 15 15 16 15 14 15 16 17 17 16 14 12 11 10 9 9 10 10 11 12 12 11 11 13 14 14 14 16 18 21 23
21 20 20 20 19 19 18 18 17 17 16 16 15 15 15 14 15 16 17 16 15 15 13 11 10 8 8 9 9 10 12 13 12 11 12 13 13 13 13 15 18 21
21 20 20 19 19 19 18 18 18 18 18 17 15 14 14 14 15 17 17 14 13 13 14 13 11 9 7 7 8 11 13 13 13 12 12 12 12 13 13 12 14 17
Wind_Direction
122 128 129 132 121 101 93 90 99 104 82 78 86 82 71 64 60 58 56 51 47 44 43 46 43 39 35 34 37 37 33 30 27 27 27 24 22 20 16 14 12 9
127 132 132 131 126 112 104 98 101 115 107 86 86 90 86 77 69 64 63 58 51 49 50 50 46 42 41 40 39 37 35 33 31 30 29 24 23 20 16 15 14 12
129 132 130 127 128 122 113 110 110 113 112 101 95 96 92 81 72 67 67 66 61 60 57 52 48 44 43 44 42 39 38 37 34 32 30 27 25 22 19 16 14 14
126 129 132 131 129 128 126 123 120 116 111 106 104 103 95 87 85 79 74 73 71 68 61 54 50 45 45 48 47 44 41 38 36 35 34 30 26 24 21 17 16 15
127 129 132 132 130 131 131 126 122 121 117 113 108 106 107 105 98 87 77 71 69 68 63 58 53 48 48 50 48 46 43 38 36 36 36 33 29 27 23 19 19 18
132 133 132 131 131 127 125 124 124 122 118 114 109 106 110 107 96 85 78 72 67 66 65 61 58 54 53 52 49 49 46 41 37 38 39 37 32 30 25 22 22 20
132 133 131 132 134 131 127 127 126 122 118 114 111 109 104 96 92 85 82 78 68 63 65 64 62 59 56 54 52 53 51 44 40 41 41 39 35 31 27 24 23 22
136 134 133 132 134 135 133 130 126 122 118 115 116 116 107 97 89 80 77 79 73 68 69 68 67 63 58 53 48 49 51 46 44 44 42 43 42 35 29 25 23 23
141 139 137 135 135 133 131 127 124 121 119 118 120 115 104 95 85 74 77 83 80 74 64 59 63 63 58 54 47 44 44 45 45 44 44 48 47 39 33 28 24 23
140 138 136 135 135 133 131 126 123 122 121 121 119 105 96 95 83 70 77 85 81 69 51 49 58 61 58 56 50 45 43 42 46 46 45 49 48 43 39 32 28 27
136 136 135 135 133 131 128 125 123 123 121 115 109 98 90 92 85 71 73 78 74 63 54 56 62 64 62 58 52 49 45 40 45 50 48 46 46 44 42 37 33 31
134 135 137 137 133 129 125 124 122 120 117 112 109 103 91 86 84 74 71 72 70 66 66 69 70 66 64 63 57 52 47 41 44 52 51 45 42 42 40 39 37 34
137 138 137 135 131 129 126 125 124 119 117 113 107 101 92 86 84 79 75 74 74 73 74 75 73 67 65 68 65 57 51 47 46 50 52 47 43 40 38 37 36 33
143 141 139 135 130 129 126 124 121 116 113 109 99 94 92 89 86 83 80 77 77 79 80 78 74 69 65 67 68 64 57 52 50 49 48 47 44 41 37 37 36 33
142 139 139 136 132 130 127 123 119 116 114 109 100 96 94 92 89 86 82 79 80 82 82 79 75 69 64 63 66 66 60 54 52 51 47 45 43 40 37 35 35 34
139 138 138 136 134 131 128 124 122 120 115 108 102 97 94 93 91 87 83 80 81 82 81 80 77 72 69 68 68 67 63 57 54 51 49 47 43 39 37 34 33 34
141 140 138 137 135 131 128 126 123 119 113 108 103 99 97 96 93 89 85 82 82 83 82 82 80 77 76 75 71 68 64 59 56 54 50 48 44 39 35 32 30 30
143 140 139 140 137 132 129 126 122 118 114 110 105 101 100 98 93 90 88 85 85 85 85 84 82 81 80 78 75 71 66 61 59 57 53 48 46 41 36 33 30 27
146 142 143 142 136 133 130 126 123 120 116 112 107 104 103 99 95 93 90 88 88 89 88 86 84 82 81 81 79 75 72 67 61 59 57 53 50 47 42 38 33 28
148 145 142 139 135 134 131 126 125 121 116 113 110 107 104 100 96 94 92 89 88 90 92 90 85 83 82 82 81 78 77 73 66 61 58 55 53 51 49 46 41 35
148 143 139 136 136 135 130 127 126 121 117 116 114 110 105 101 98 96 95 92 88 91 95 92 86 83 82 82 82 83 81 76 71 67 61 56 53 51 49 48 47 45
144 139 138 138 137 134 130 129 126 123 121 119 115 111 106 103 100 97 94 91 88 89 95 95 90 85 81 80 81 87 90 84 76 73 68 60 55 50 46 46 47 49
142 140 141 141 139 136 133 130 127 124 122 121 117 113 109 105 104 100 95 92 88 86 93 98 95 86 83 83 81 87 95 94 85 81 78 71 61 53 46 44 47 50
143 143 144 143 140 137 134 131 129 126 124 123 120 116 112 110 107 100 94 91 86 83 89 97 96 92 90 84 79 84 93 96 93 90 87 82 73 64 52 45 48 54
145 147 146 143 139 136 135 133 130 127 125 124 121 118 118 116 110 102 94 90 88 85 86 91 95 97 96 85 77 83 92 94 91 89 88 84 79 74 64 52 50 55
147 148 144 141 137 136 137 133 129 128 128 127 124 124 124 120 111 104 97 93 95 98 96 94 96 99 100 93 83 85 91 92 88 84 84 84 80 74 69 60 51 47